GFSFLT2_500_spd_054.txt.gz
Wind_Speed
58 64 55 48 55 61 64 55 63 63 68 61 64 62 62 64 67 65 69 69 69 68 68 70 71 71 70
71 55 63 66 65 64 66 68 66 67 68 68 68 65 67 70 64 67 68 68 67 66 68 69 68 69 72
59 61 63 64 62 63 61 55 58 62 67 68 68 67 67 66 64 65 65 64 65 66 68 71 72 74 76
55 58 59 60 61 65 64 62 65 69 67 66 65 62 61 64 66 67 68 69 70 72 75 77 80 83 86
51 53 53 49 56 58 60 61 59 59 59 61 61 65 69 72 74 74 74 74 74 73 71 71 70 71 71
46 47 51 55 54 52 54 56 59 62 60 65 64 71 73 74 74 70 67 64 62 60 58 56 56 58 58
47 47 51 54 53 54 57 60 60 62 64 68 68 67 62 58 55 52 52 50 49 49 50 50 47 45 45
41 46 49 52 56 60 62 64 67 68 63 61 55 49 46 47 46 47 47 48 48 46 45 43 42 39 39
47 51 55 60 64 66 66 67 62 56 49 43 42 40 42 46 46 46 46 45 46 43 41 40 38 38 40
51 56 61 66 70 66 56 47 43 41 39 40 43 41 37 42 43 43 43 43 43 44 40 37 37 37 37
57 63 68 70 59 45 38 38 39 41 41 40 40 39 37 34 38 39 40 41 44 43 38 36 34 36 33
63 68 65 48 39 38 40 41 41 41 41 40 38 37 35 37 36 37 38 39 40 37 36 35 35 35 33
69 59 42 37 39 40 40 40 41 41 41 40 37 34 34 34 32 36 35 36 37 34 32 31 34 36 35
54 38 35 37 38 40 40 38 36 37 38 38 37 35 33 33 32 33 35 35 34 33 29 32 34 36 36
36 35 35 34 35 34 34 34 33 34 36 37 37 36 35 33 32 33 34 34 34 28 28 29 31 35 36
34 34 32 32 32 32 32 32 32 34 34 36 38 38 35 33 37 34 36 35 34 32 33 30 28 35 35
33 33 32 32 33 34 33 33 33 33 34 35 38 39 35 33 34 39 36 37 34 32 34 30 25 31 35

GFSFLT2_500_spd_057.txt.gz
Wind_Speed
54 56 55 46 49 54 49 53 53 61 59 58 62 62 65 64 61 62 62 61 63 61 62 63 64 68 67
29 38 49 50 51 53 56 60 60 60 61 62 62 60 58 59 58 61 61 61 63 62 65 64 65 68 69
55 51 48 52 54 54 58 61 61 61 60 56 57 60 61 62 61 59 57 58 59 58 58 59 62 64 65
54 49 46 48 51 53 56 57 56 53 55 55 51 51 54 55 56 57 59 59 59 60 63 65 68 70 71
42 44 47 48 50 51 51 51 52 54 53 54 55 58 60 61 60 60 63 65 66 68 69 70 71 73 74
37 38 38 40 45 49 50 51 53 52 54 60 61 64 65 66 67 68 68 69 68 66 65 64 61 60 60
31 35 39 41 42 44 48 52 55 58 61 67 67 69 70 71 70 67 63 58 55 52 51 50 50 51 54
30 33 38 42 46 49 53 57 61 64 68 70 69 67 63 58 53 49 48 47 47 47 48 48 48 48 48
35 39 42 46 49 53 58 65 68 69 66 56 49 47 45 46 46 47 47 46 46 46 46 45 44 44 47
39 42 46 49 54 59 66 73 68 55 42 39 41 41 43 46 46 46 46 45 44 43 41 40 41 42 41
43 47 51 56 60 65 68 51 40 40 39 40 42 41 41 40 43 44 45 45 44 44 42 41 42 41 33
48 52 56 61 64 62 44 38 39 40 41 42 40 41 40 39 38 41 43 42 42 41 40 41 41 40 35
51 55 59 63 60 43 37 35 37 37 38 38 37 36 36 36 34 38 38 39 40 39 39 38 38 38 36
52 55 59 57 43 37 35 33 32 32 34 34 34 34 33 34 33 34 37 36 37 37 37 36 37 37 35
54 58 57 48 39 36 34 33 33 34 34 34 33 33 33 32 32 35 34 35 37 36 36 33 35 35 33
58 58 51 44 39 37 36 35 34 34 35 35 36 36 34 32 35 32 34 35 35 36 36 32 31 34 33
59 54 48 43 40 39 39 40 40 38 40 40 40 40 36 33 33 37 38 37 36 36 36 34 31 32 32

GFSFLT2_500_spd_060.txt.gz
Wind_Speed
51 31 27 50 53 51 36 44 46 46 43 50 51 50 53 54 55 54 56 55 55 56 55 56 59 60 61
41 46 47 34 20 45 43 41 54 54 55 53 50 51 52 53 53 52 55 55 57 59 59 59 60 60 60
37 46 53 50 48 43 43 39 43 50 52 53 54 50 48 49 52 52 50 51 50 52 53 55 57 57 59
37 33 39 38 40 38 40 40 42 45 46 49 48 47 49 51 49 48 49 52 53 54 55 56 57 58 60
24 23 33 38 36 34 35 37 39 41 42 43 45 47 50 52 55 56 57 58 58 58 58 59 61 63 65
19 23 25 28 31 34 36 40 41 44 47 50 51 54 56 60 63 65 66 66 66 66 67 68 69 69 68
20 21 24 29 32 36 40 44 47 50 53 56 58 62 66 69 72 73 73 71 67 63 59 57 55 54 54
26 28 31 34 38 42 45 48 51 54 58 62 66 69 73 76 68 60 54 49 47 46 45 46 46 48 49
32 34 35 38 41 44 48 51 55 58 62 68 71 72 62 51 46 45 45 45 46 46 46 47 47 48 48
37 39 41 42 44 48 51 54 58 59 65 70 60 48 45 46 47 47 47 46 46 46 46 46 46 44 43
41 43 44 46 49 51 52 55 59 63 66 51 42 40 41 44 46 47 46 46 45 45 44 42 41 40 41
44 45 47 48 51 52 55 59 60 60 52 41 37 36 36 37 38 40 42 43 42 44 42 40 40 39 38
45 47 49 51 53 55 57 59 57 51 45 39 35 35 35 34 33 35 38 40 41 42 42 40 41 41 40
46 48 50 52 55 58 60 59 52 47 43 39 38 36 34 33 32 32 35 35 40 42 41 39 41 42 40
48 50 53 56 59 61 58 53 47 45 43 42 41 38 37 35 33 35 35 33 36 38 38 37 39 42 41
50 53 56 59 63 59 54 50 47 46 45 45 45 44 41 39 40 38 37 37 38 36 37 36 35 39 40
52 55 60 64 60 55 52 50 48 47 47 47 47 48 46 43 42 43 41 41 39 39 38 38 36 37 38

GFSFLT2_500_spd_063.txt.gz
Wind_Speed
37 34 30 33 31 44 32 30 37 41 45 42 47 48 43 41 39 38 45 50 48 51 48 47 48 49 52
33 32 27 28 27 33 31 19 22 28 38 35 38 47 49 43 47 46 45 45 47 53 54 50 52 54 54
34 33 33 25 23 27 32 35 29 34 39 38 38 38 36 39 43 43 42 41 45 44 47 49 50 52 53
29 25 23 18 17 18 23 26 30 27 31 33 33 33 36 36 38 39 41 43 43 45 48 51 51 53 55
28 25 21 18 20 21 21 24 25 27 30 32 35 37 39 41 43 45 47 49 52 55 56 58 59 60 62
26 26 25 23 22 24 26 28 30 32 35 37 39 42 45 46 49 51 54 57 61 64 65 67 66 66 68
29 29 29 30 31 33 35 37 39 40 42 44 45 47 50 53 56 59 62 66 68 70 69 62 56 55 56
32 32 33 34 36 38 40 42 44 46 49 52 54 56 58 59 60 64 68 65 55 48 43 42 42 43 44
35 36 38 39 41 42 43 45 48 50 52 54 55 57 60 60 62 64 57 47 42 42 43 44 45 46 46
38 39 41 42 43 44 46 48 50 51 53 54 56 57 59 61 59 54 46 42 42 43 44 45 46 46 46
41 43 44 45 46 47 48 50 51 53 55 56 57 59 61 59 51 47 43 41 40 39 39 40 39 39 40
43 44 44 46 47 48 50 52 53 55 57 58 60 62 57 48 43 44 42 42 40 38 37 35 35 36 36
44 45 46 47 49 50 51 52 55 58 61 63 60 55 49 44 42 42 41 41 37 37 37 35 35 36 37
46 46 48 49 50 50 52 55 60 64 63 58 54 50 48 45 42 41 41 38 38 39 36 36 35 36 38
48 48 49 50 51 52 55 60 63 61 57 55 53 50 48 46 45 45 43 41 41 41 39 36 37 39 39
50 50 51 51 52 56 59 64 58 56 56 55 54 52 49 47 47 47 46 45 45 45 43 41 38 41 40
50 51 52 52 54 58 63 57 53 53 53 54 54 53 49 46 46 49 48 47 47 47 46 45 41 41 41

GFSFLT2_500_spd_066.txt.gz
Wind_Speed
35 36 35 34 35 29 20 19 26 18 16 12 21 28 28 29 38 35 36 35 36 37 39 42 44 47 49
33 34 34 32 30 21 15 16 16 13 14 17 20 20 24 24 27 30 31 34 38 41 41 43 42 42 49
31 31 30 29 27 21 16 18 16 15 19 20 20 21 25 28 29 29 29 32 33 34 36 37 39 42 43
28 28 28 29 26 22 20 19 18 18 18 20 22 23 26 27 29 30 32 32 34 37 38 41 42 44 46
28 28 28 27 28 28 26 26 25 25 25 25 27 29 31 33 35 36 37 38 40 42 45 46 47 50 53
30 30 30 29 29 29 30 31 32 32 34 35 35 36 38 39 40 42 43 44 46 47 50 53 55 59 61
32 32 32 32 33 33 33 34 35 37 38 40 40 40 42 43 43 44 45 48 49 51 53 57 58 58 58
35 35 36 36 37 38 38 39 40 41 43 43 45 46 47 48 48 49 51 51 51 52 54 54 52 49 47
37 38 38 39 40 40 41 42 43 44 46 47 49 51 52 53 55 56 56 56 56 55 51 46 43 43 44
38 39 40 41 42 42 43 43 44 46 48 50 52 54 55 55 57 58 59 60 59 54 46 43 42 41 41
40 41 42 43 43 44 44 45 46 48 50 53 54 55 55 56 59 61 62 60 54 48 44 42 41 40 39
42 43 44 44 45 46 46 46 48 51 53 52 52 55 57 61 61 60 56 52 49 46 43 42 41 37 35
43 45 46 47 47 48 48 48 51 52 51 53 55 58 60 55 52 52 51 51 49 46 44 42 40 37 35
46 48 49 50 50 50 50 51 53 53 53 55 57 58 52 52 51 50 51 48 49 49 46 44 41 39 37
49 52 53 52 50 50 51 53 53 54 56 57 57 51 49 50 49 49 49 49 49 49 49 46 44 43 41
53 55 54 53 51 52 54 54 52 54 57 58 51 45 44 46 47 47 46 48 50 50 49 47 45 46 45
57 54 53 52 53 54 53 50 52 55 56 50 47 43 42 44 45 44 43 45 46 45 47 47 46 46 47

GFSFLT2_500_spd_069.txt.gz
Wind_Speed
30 30 30 30 30 31 30 22 23 22 10 9 8 8 8 9 16 19 21 25 29 29 31 33 36 32 33
28 28 29 29 27 29 27 24 23 23 20 18 15 13 13 12 17 20 24 25 27 29 34 36 39 43 42
28 29 28 28 28 27 28 26 24 22 21 20 20 19 19 19 22 25 26 28 31 31 33 35 36 36 38
29 29 29 29 30 29 29 29 28 26 25 24 22 22 22 23 24 25 27 29 31 33 34 35 36 38 38
30 30 30 30 31 31 32 31 31 31 31 29 28 28 28 29 31 32 32 33 34 35 36 38 40 41 43
31 32 33 33 33 34 34 34 34 35 35 36 35 34 34 35 36 36 38 39 40 41 42 43 45 46 47
33 34 35 36 36 37 37 37 38 38 38 40 39 37 38 38 40 41 42 42 44 45 46 47 48 49 51
35 37 37 37 38 38 39 39 40 40 41 41 41 41 41 42 44 44 45 46 46 47 47 48 50 51 53
39 39 38 38 40 40 40 41 41 41 42 42 43 43 44 46 48 50 53 54 54 53 53 53 53 54 54
39 40 41 41 41 41 42 42 42 43 43 44 45 46 46 49 52 55 55 56 57 57 58 59 59 56 53
40 41 42 42 42 42 43 45 46 46 46 46 46 47 49 52 54 54 55 56 57 60 61 57 53 50 47
41 42 43 43 43 44 46 47 49 48 47 47 48 50 53 53 54 56 55 57 58 55 53 52 51 49 47
41 42 44 44 46 49 52 53 53 52 50 48 50 53 52 51 52 56 56 54 51 50 51 51 50 49 46
41 43 46 49 52 55 57 56 54 52 50 51 52 50 49 51 53 53 49 46 48 48 48 48 49 49 48
44 47 50 53 54 55 54 54 53 54 55 52 46 45 49 52 49 45 44 45 46 48 47 47 50 51 49
49 50 49 49 52 54 54 53 52 51 48 46 46 47 48 47 43 43 46 47 47 46 46 46 46 49 48
44 45 47 48 52 55 55 54 50 47 47 47 47 47 46 44 42 45 47 47 45 45 42 43 41 43 45